Weatherford, OK

11:10 PM CDT on March 25, 2017 (GMT -0500)
Weatherford

Weather History for KOJA - January, 2014

Change the Weather History Date:

Wednesday, January 29, 2014

  Actual Average (KJWG) Record (KJWG)
Temperature  
Mean Temperature 32 °F -  
Max Temperature 46 °F 49 °F 75 °F (1971)
Min Temperature 17 °F 26 °F 1 °F (1966)
Degree Days  
Heating Degree Days 34    
Moisture  
Dew Point 11 °F    
Average Humidity 47    
Maximum Humidity 74    
Minimum Humidity 23    
Precipitation  
Precipitation 0.00 in - - ()
Sea Level Pressure  
Sea Level Pressure 30.15 in    
Wind  
Wind Speed 10 mph (SSW)    
Max Wind Speed 24 mph    
Max Gust Speed 31 mph    
Visibility 10 miles    
Events      
Averages and records for this station are not official NWS values.
T = Trace of Precipitation, MM = Missing Value Source: NWS Daily Summary

Daily Weather History Graph

Daily Weather History Graph

Search for Another Location

Airport or City:

Trip Planner

Search our weather history database for the weather conditions in past years. The results will help you decide how hot, cold, wet, or windy it might be!

Date:

Astronomy

Jan. 29, 2014 Rise Set
Actual Time 7:36 AM CST 5:59 PM CST
Civil Twilight 7:09 AM CST 6:26 PM CST
Nautical Twilight 6:39 AM CST 6:57 PM CST
Astronomical Twilight 6:08 AM CST 7:27 PM CST
Moon 6:14 AM CST (1/29) 5:00 PM CST (1/29)
Length of Visible Light 11h 16m
Length of Day
10h 22m
Waning Crescent, 2% of the Moon is Illuminated
Jan 29
Waning Crescent
Jan 30
New
Feb 6
First Quarter
Feb 14
Full
Feb 22
Last Quarter

Hourly Weather History & Observations

Time (CST) Temp. Windchill Dew Point Humidity Pressure Visibility Wind Dir Wind Speed Gust Speed Precip Events Conditions
12:15 AM 21.2 °F 13.6 °F 10.4 °F 63% 30.33 in 10.0 mi WSW 5.8 mph - N/A   Clear
12:35 AM 21.2 °F 12.6 °F 10.4 °F 63% 30.33 in 10.0 mi SW 6.9 mph - N/A   Clear
12:55 AM 21.2 °F 12.6 °F 10.4 °F 63% 30.33 in 10.0 mi SW 6.9 mph - N/A   Clear
1:15 AM 23.0 °F 14.7 °F 12.2 °F 63% 30.32 in 10.0 mi SW 6.9 mph - N/A   Clear
1:35 AM 21.2 °F 13.6 °F 12.2 °F 68% 30.32 in 10.0 mi WSW 5.8 mph - N/A   Clear
1:55 AM 21.2 °F 13.6 °F 10.4 °F 63% 30.32 in 10.0 mi SW 5.8 mph - N/A   Clear
2:15 AM 21.2 °F 13.6 °F 12.2 °F 68% 30.31 in 10.0 mi SW 5.8 mph - N/A   Clear
2:35 AM 21.2 °F 16.4 °F 12.2 °F 68% 30.30 in 10.0 mi SSW 3.5 mph - N/A   Clear
2:55 AM 19.4 °F 14.3 °F 10.4 °F 68% 30.30 in 10.0 mi SSW 3.5 mph - N/A   Clear
3:15 AM 19.4 °F 12.8 °F 10.4 °F 68% 30.28 in 10.0 mi SSW 4.6 mph - N/A   Clear
3:35 AM 19.4 °F 12.8 °F 10.4 °F 68% 30.28 in 10.0 mi SSW 4.6 mph - N/A   Clear
3:55 AM 19.4 °F 10.4 °F 10.4 °F 68% 30.27 in 10.0 mi SSW 6.9 mph - N/A   Clear
4:15 AM 19.4 °F 9.5 °F 12.2 °F 74% 30.27 in 10.0 mi SSW 8.1 mph - N/A   Clear
4:35 AM 19.4 °F 10.4 °F 10.4 °F 68% 30.26 in 10.0 mi SSW 6.9 mph - N/A   Clear
4:55 AM 19.4 °F 10.4 °F 10.4 °F 68% 30.25 in 10.0 mi SSW 6.9 mph - N/A   Clear
5:15 AM 19.4 °F 7.9 °F 12.2 °F 74% 30.25 in 10.0 mi SSW 10.4 mph - N/A   Clear
5:35 AM 19.4 °F 10.4 °F 10.4 °F 68% 30.25 in 10.0 mi SW 6.9 mph - N/A   Clear
5:55 AM 19.4 °F 12.8 °F 10.4 °F 68% 30.26 in 10.0 mi SW 4.6 mph - N/A   Clear
6:15 AM 19.4 °F 11.5 °F 10.4 °F 68% 30.25 in 10.0 mi SSW 5.8 mph - N/A   Clear
6:35 AM 17.6 °F 9.3 °F 10.4 °F 73% 30.26 in 10.0 mi SSW 5.8 mph - N/A   Clear
6:55 AM 17.6 °F 10.7 °F 10.4 °F 73% 30.26 in 10.0 mi SSW 4.6 mph - N/A   Clear
7:15 AM 17.6 °F 10.7 °F 10.4 °F 73% 30.25 in 10.0 mi SSW 4.6 mph - N/A   Clear
7:35 AM 17.6 °F 12.3 °F 10.4 °F 73% 30.25 in 10.0 mi SSW 3.5 mph - N/A   Clear
7:55 AM 17.6 °F 12.3 °F 10.4 °F 73% 30.24 in 10.0 mi SSW 3.5 mph - N/A   Clear
8:15 AM 19.4 °F 12.8 °F 12.2 °F 74% 30.24 in 10.0 mi SSW 4.6 mph - N/A   Clear
8:35 AM 21.2 °F 12.6 °F 12.2 °F 68% 30.24 in 10.0 mi SSW 6.9 mph - N/A   Clear
8:55 AM 21.2 °F 10.9 °F 12.2 °F 68% 30.24 in 10.0 mi SSW 9.2 mph - N/A   Clear
9:15 AM 24.8 °F 16.9 °F 14.0 °F 64% 30.25 in 10.0 mi SSW 6.9 mph - N/A   Clear
9:35 AM 28.4 °F 20.4 °F 14.0 °F 55% 30.25 in 10.0 mi SSW 8.1 mph - N/A   Clear
9:55 AM 32.0 °F 24.2 °F 12.2 °F 44% 30.25 in 10.0 mi SW 9.2 mph - N/A   Clear
10:15 AM 32.0 °F 24.8 °F 12.2 °F 44% 30.25 in 10.0 mi SSW 8.1 mph - N/A   Clear
10:35 AM 33.8 °F 25.8 °F 12.2 °F 41% 30.24 in 10.0 mi SSW 10.4 mph - N/A   Clear
10:55 AM 35.6 °F 28.6 °F 12.2 °F 38% 30.24 in 10.0 mi SSW 9.2 mph - N/A   Clear
11:15 AM 37.4 °F 29.8 °F 12.2 °F 36% 30.23 in 10.0 mi SSW 11.5 mph 20.7 mph N/A   Clear
11:35 AM 37.4 °F 28.5 °F 12.2 °F 36% 30.22 in 10.0 mi SSW 15.0 mph 21.9 mph N/A   Clear
11:55 AM 41.0 °F 33.1 °F 12.2 °F 31% 30.21 in 10.0 mi SSW 15.0 mph 21.9 mph N/A   Clear
12:15 PM 42.8 °F 34.0 °F 8.6 °F 25% 30.20 in 10.0 mi SSW 20.7 mph 31.1 mph N/A   Clear
12:35 PM 42.8 °F 34.5 °F 10.4 °F 27% 30.18 in 10.0 mi SSW 18.4 mph 27.6 mph N/A   Clear
12:55 PM 42.8 °F 33.3 °F 8.6 °F 25% 30.17 in 10.0 mi SSW 24.2 mph 29.9 mph N/A   Clear
1:35 PM 44.6 °F 36.1 °F 10.4 °F 25% 30.14 in 10.0 mi SSW 21.9 mph 29.9 mph N/A   Clear
1:55 PM 44.6 °F 36.4 °F 10.4 °F 25% 30.12 in 10.0 mi SSW 20.7 mph 28.8 mph N/A   Clear
2:15 PM 44.6 °F 37.4 °F 10.4 °F 25% 30.11 in 10.0 mi SSW 16.1 mph 29.9 mph N/A   Clear
2:35 PM 44.6 °F 37.4 °F 10.4 °F 25% 30.10 in 10.0 mi SSW 16.1 mph 27.6 mph N/A   Clear
2:55 PM 44.6 °F 36.6 °F 10.4 °F 25% 30.09 in 10.0 mi South 19.6 mph 29.9 mph N/A   Clear
3:15 PM 44.6 °F 36.1 °F 10.4 °F 25% 30.08 in 10.0 mi South 21.9 mph 26.5 mph N/A   Clear
3:35 PM 46.4 °F 38.1 °F 10.4 °F 23% 30.07 in 10.0 mi SSW 24.2 mph 31.1 mph N/A   Clear
3:55 PM 46.4 °F 38.7 °F 10.4 °F 23% 30.06 in 10.0 mi SSW 20.7 mph 28.8 mph N/A   Clear
4:15 PM 46.4 °F 39.0 °F 10.4 °F 23% 30.04 in 10.0 mi South 19.6 mph 28.8 mph N/A   Clear
4:35 PM 46.4 °F 38.7 °F 10.4 °F 23% 30.04 in 10.0 mi SSW 20.7 mph 26.5 mph N/A   Clear
4:55 PM 44.6 °F 36.4 °F 10.4 °F 25% 30.04 in 10.0 mi SSW 20.7 mph 26.5 mph N/A   Clear
5:15 PM 44.6 °F 37.2 °F 10.4 °F 25% 30.05 in 10.0 mi SSW 17.3 mph 26.5 mph N/A   Clear
5:35 PM 44.6 °F 37.8 °F 10.4 °F 25% 30.05 in 10.0 mi SSW 15.0 mph 23.0 mph N/A   Clear
5:55 PM 42.8 °F 35.4 °F 10.4 °F 27% 30.04 in 10.0 mi SSW 15.0 mph 21.9 mph N/A   Clear
6:15 PM 41.0 °F 33.5 °F 10.4 °F 29% 30.04 in 10.0 mi South 13.8 mph 20.7 mph N/A   Clear
6:35 PM 41.0 °F 33.9 °F 10.4 °F 29% 30.02 in 10.0 mi South 12.7 mph - N/A   Clear
6:55 PM 37.4 °F 29.3 °F 10.4 °F 33% 30.02 in 10.0 mi South 12.7 mph - N/A   Clear
7:15 PM 37.4 °F 29.8 °F 10.4 °F 33% 30.02 in 10.0 mi South 11.5 mph 18.4 mph N/A   Clear
7:35 PM 37.4 °F 30.3 °F 10.4 °F 33% 30.02 in 10.0 mi South 10.4 mph - N/A   Clear
7:55 PM 37.4 °F 28.9 °F 10.4 °F 33% 30.01 in 10.0 mi South 13.8 mph 18.4 mph N/A   Clear
8:15 PM 35.6 °F 26.6 °F 10.4 °F 35% 30.00 in 10.0 mi South 13.8 mph 20.7 mph N/A   Clear
8:35 PM 35.6 °F 26.6 °F 10.4 °F 35% 29.99 in 10.0 mi South 13.8 mph 18.4 mph N/A   Clear
8:55 PM 35.6 °F 26.2 °F 10.4 °F 35% 29.99 in 10.0 mi South 15.0 mph 23.0 mph N/A   Clear
9:15 PM 33.8 °F 24.3 °F 10.4 °F 38% 29.99 in 10.0 mi South 13.8 mph 19.6 mph N/A   Clear
9:35 PM 33.8 °F 23.9 °F 10.4 °F 38% 29.98 in 10.0 mi South 15.0 mph 23.0 mph N/A   Clear
9:55 PM 33.8 °F 24.8 °F 10.4 °F 38% 29.98 in 10.0 mi South 12.7 mph - N/A   Clear
10:15 PM 33.8 °F 23.5 °F 10.4 °F 38% 29.96 in 10.0 mi South 16.1 mph 20.7 mph N/A   Clear
10:35 PM 33.8 °F 24.3 °F 12.2 °F 41% 29.96 in 10.0 mi South 13.8 mph 18.4 mph N/A   Clear
10:55 PM 33.8 °F 23.9 °F 12.2 °F 41% 29.94 in 10.0 mi South 15.0 mph 24.2 mph N/A   Clear
11:15 PM 32.0 °F 21.2 °F 12.2 °F 44% 29.92 in 10.0 mi South 16.1 mph - N/A   Clear
11:35 PM 33.8 °F 23.9 °F 12.2 °F 41% 29.92 in 10.0 mi South 15.0 mph 19.6 mph N/A   Clear
11:55 PM 33.8 °F 23.9 °F 14.0 °F 44% 29.91 in 10.0 mi South 15.0 mph 20.7 mph N/A   Clear